EW7329 Weather Reports


Display with metric or nautical units.
time (UTC)temp
F
wind
direction
speed
MPH
gust
MPH
rain 1hr
in
rain 24hr
in
rain mn
in
humidity
%
barometer
mb
20260506124559 70 224 13.0 24.0 0.00 0.00 0.00 54 1001.2
20260506123054 71 165 9.0 17.0 0.00 0.00 0.00 53 1000.9
20260506121555 72 167 9.0 19.0 0.00 0.00 0.00 51 1001.2
20260506120100 72 138 9.0 16.0 0.00 0.00 0.00 53 1001.2
20260506114551 72 180 6.0 19.0 0.00 0.00 0.00 55 1001.2
20260506113055 72 193 7.0 19.0 0.00 0.00 0.00 55 1001.3
20260506111548 71 186 6.0 14.0 0.00 0.00 0.00 56 1001.6
20260506110054 71 184 8.0 15.0 0.00 0.00 0.00 54 1001.9
20260506104552 69 142 7.0 14.0 0.00 0.00 0.00 55 1002.1
20260506103050 69 170 5.0 12.0 0.00 0.00 0.00 57 1002.1
20260506101555 69 176 8.0 14.0 0.00 0.00 0.00 57 1002.1
20260506100101 66 171 8.0 12.0 0.00 0.00 0.00 61 1002.4
20260506094542 66 180 8.0 14.0 0.00 0.00 0.00 60 1002.4
20260506093045 67 194 9.0 16.0 0.00 0.00 0.00 57 1002.3
20260506091540 70 158 8.0 17.0 0.00 0.00 0.00 52 1001.9
20260506090138 70 151 8.0 16.0 0.00 0.00 0.00 53 1001.8
20260506084559 70 183 11.0 21.0 0.00 0.00 0.00 50 1002.0
20260506083039 71 171 6.0 15.0 0.00 0.00 0.00 50 1002.0
20260506081541 70 238 6.0 13.0 0.00 0.00 0.00 52 1001.8
20260506073036 65 175 1.0 6.0 0.00 0.00 0.00 61 1002.1
20260506071519 65 263 2.0 4.0 0.00 0.00 0.00 63 1002.2
20260506061506 57 5 1.0 4.0 0.00 0.00 0.00 75 1002.4
20260506044503 48 5 2.0 4.0 0.00 0.00 0.00 90 1002.3
20260506043110 48 355 1.0 4.0 0.00 0.00 0.00 90 1002.1
20260506041604 47 302 1.0 3.0 0.00 0.00 0.00 88 1002.1
20260506040057 48 326 1.0 5.0 0.00 0.00 0.00 88 1002.1
20260506034626 48 312 1.0 3.0 0.00 0.00 0.00 88 1002.1
20260506033101 47 355 0.0 3.0 0.00 0.00 0.00 88 1001.9
20260506031553 48 276 1.0 2.0 0.00 0.00 0.00 87 1001.9
20260506030050 48 92 2.0 6.0 0.00 0.00 0.00 87 1001.8
20260506024548 49 309 0.0 2.0 0.00 0.00 0.00 86 1001.8
20260506023105 49 295 2.0 3.0 0.00 0.00 0.00 85 1001.8
20260506021545 49 9 0.0 3.0 0.00 0.00 0.00 85 1001.8
20260506020045 50 5 1.0 4.0 0.00 0.00 0.00 85 1001.6
20260506014540 50 252 1.0 4.0 0.00 0.00 0.00 84 1001.6
20260506013040 50 316 1.0 3.0 0.00 0.00 0.00 82 1001.4
20260506011534 51 5 2.0 5.0 0.00 0.00 0.00 82 1001.3
20260506010032 52 5 0.0 4.0 0.00 0.00 0.00 81 1001.1
20260506004546 52 275 1.0 7.0 0.00 0.00 0.00 80 1001.1
20260506003038 53 287 0.0 4.0 0.00 0.00 0.00 78 1001.1
20260506001524 54 355 3.0 6.0 0.00 0.00 0.00 77 1000.9
20260506000025 55 26 0.0 5.0 0.00 0.00 0.00 75 1001.0
20260505234526 56 355 0.0 6.0 0.00 0.00 0.00 73 1001.1
20260505233018 57 325 0.0 7.0 0.00 0.00 0.00 71 1001.2
20260505231516 58 304 1.0 8.0 0.00 0.00 0.00 69 1001.2
20260505230012 59 317 4.0 8.0 0.00 0.00 0.00 67 1001.1
20260505224511 59 168 4.0 13.0 0.00 0.00 0.00 66 1000.9
20260505223009 59 229 6.0 11.0 0.00 0.00 0.00 67 1000.8
20260505221512 60 155 5.0 14.0 0.00 0.00 0.00 65 1000.9
20260505220108 57 168 7.0 13.0 0.00 0.00 0.00 71 1000.9
20260505214503 57 198 5.0 9.0 0.00 0.00 0.00 73 1001.2
20260505213002 57 167 2.0 5.0 0.00 0.00 0.00 72 1001.3
20260505211502 57 205 3.0 7.0 0.00 0.00 0.00 73 1001.3
20260505210101 58 171 2.0 7.0 0.00 0.00 0.00 71 1001.3
20260505204609 58 159 2.0 6.0 0.00 0.00 0.00 71 1001.6
20260505203100 58 131 2.0 8.0 0.00 0.00 0.00 71 1001.4
20260505201602 59 167 4.0 7.0 0.00 0.00 0.00 69 1001.5
20260505200103 59 155 3.0 6.0 0.00 0.00 0.00 66 1001.6
20260505194557 60 167 1.0 6.0 0.00 0.00 0.00 66 1001.5
20260505193059 60 174 3.0 8.0 0.00 0.00 0.00 65 1001.4
20260505191600 60 178 7.0 11.0 0.00 0.00 0.00 66 1001.3
20260505190056 60 162 4.0 9.0 0.00 0.00 0.00 66 1001.4
20260505184602 60 166 5.0 11.0 0.00 0.00 0.00 66 1001.4
20260505183054 60 157 6.0 12.0 0.00 0.00 0.00 65 1001.3
20260505181551 60 188 5.0 12.0 0.00 0.00 0.00 65 1001.2
20260505180054 61 171 6.0 14.0 0.00 0.00 0.00 64 1001.4
20260505174607 62 157 6.0 11.0 0.00 0.00 0.00 61 1001.4
20260505173047 63 149 7.0 14.0 0.00 0.00 0.00 60 1001.4
20260505171547 64 162 10.0 17.0 0.00 0.00 0.00 58 1001.6
20260505170107 64 182 9.0 16.0 0.00 0.00 0.00 57 1001.6
20260505164545 64 211 8.0 17.0 0.00 0.00 0.00 57 1001.6
20260505163045 64 202 9.0 16.0 0.00 0.00 0.00 56 1001.6
20260505161553 65 167 8.0 14.0 0.00 0.00 0.00 54 1001.6
20260505153052 66 150 7.0 20.0 0.00 0.00 0.00 53 1001.8
20260505151545 67 134 9.0 18.0 0.00 0.00 0.00 51 1001.6